Station BFTN7 - 8656483 - Beaufort, NC Image indicating link to RSS feed of recent meteorological observations for station BFTN7


Conditions at BFTN7 as of
(6:48 am EDT)
1048 GMT on 06/23/2024:
     

Click on the graph icon in the table below to see a time series plot of the last five days of that observation.

5-day plot - Wind Direction Wind Direction (WDIR):WSW ( 250 deg true )
5-day plot - Wind Speed Wind Speed (WSPD):3.6 m/s
5-day plot - Wind Gust Wind Gust (GST):6.2 m/s
5-day plot - Atmospheric Pressure Atmospheric Pressure (PRES):1015.8 mb
5-day plot - Air Temperature Air Temperature (ATMP): 26.6 °C
5-day plot - Water Temperature Water Temperature (WTMP): 27.8 °C
5-day plot - Wind Speed at 10 Meters Wind Speed at 10 meters (WSPD10M): 4 m/s
5-day plot - Wind Speed at 20 Meters Wind Speed at 20 meters (WSPD20M): 4 m/s
5-day plot -  Wind Speed, Wind Gust and Atmospheric Pressure Combined plot of Wind Speed, Gust, and Air Pressure
NOS Water Level Observation Network Water Level
Previous observations
TIME
(EDT)
5-day plot - Wind Direction
WDIR
 
5-day plot - Wind Speed
WSPD
m/s
5-day plot - Wind Gust
GST
m/s
5-day plot - Wave Height
WVHT
m
5-day plot - Dominant Wave Period
DPD
sec
5-day plot - Average Wave Period
APD
sec
5-day plot - Mean Wave Direction
MWD
 
5-day plot - Atmospheric Pressure
PRES
mb
5-day plot - Pressure Tendency
PTDY
mb
5-day plot - Air Temperature
ATMP
°C
5-day plot - Water Temperature
WTMP
°C
5-day plot - Dew Point
DEWP
°C
5-day plot - Salinity
SAL
psu
5-day plot - Visibility
VIS
km
5-day plot - Tide (above MLLW)
TIDE
m
2024-06-23 06:42 amWSW 2.6 4.6----1015.9- 26.6 27.8----
2024-06-23 06:36 amWSW 3.1 4.6----1015.9- 26.5 27.8----
2024-06-23 06:30 amWSW 3.1 5.7----1015.8- 26.5 27.8----
2024-06-23 06:24 amWSW 3.1 4.6----1015.8- 26.4 27.8----
2024-06-23 06:18 amWSW 3.1 5.7----1015.7- 26.3 27.8----
2024-06-23 06:12 amWSW 3.6 6.7----1015.8- 26.3 27.8----
2024-06-23 06:06 amWSW 3.6 6.2----1015.8- 26.3 27.8----
2024-06-23 06:00 amWSW 4.1 6.7----1015.8 -0.4- 27.9----
2024-06-23 05:54 amWSW 3.1 6.7----1015.9-- 28.0----
2024-06-23 05:48 amWSW 4.1 7.2----1016.0- 26.4 28.1----
2024-06-23 05:42 amWSW 4.6 6.7----1016.0- 26.4 28.2----
2024-06-23 05:36 amWSW 3.6 6.2----1016.0- 26.4 28.2----
2024-06-23 05:30 amWSW 3.6 6.7----1016.0- 26.4 28.1----
2024-06-23 05:24 amWSW 3.6 7.7----1016.0- 26.5 28.1----
2024-06-23 05:18 amWSW 3.6 6.7----1015.9- 26.5 28.1----
2024-06-23 05:12 amWSW 4.1 7.7----1015.9- 26.5 28.1----
2024-06-23 05:06 amWSW 5.1 7.7----1015.9- 26.6 28.1----
2024-06-23 05:00 amWSW 4.6 7.7----1015.8- 26.5 28.0----
2024-06-23 04:54 amWSW 4.6 7.2----1015.8- 26.5 27.9----
2024-06-23 04:48 amWSW 4.6 8.8----1015.8- 26.6 27.9----
2024-06-23 04:42 amWSW 5.1 7.2----1015.8- 26.6 27.8----
2024-06-23 04:36 amWSW 5.7 7.7----1015.8- 26.6 27.8----
2024-06-23 04:30 amWSW 2.6 5.7----1015.8- 26.7 27.9----
2024-06-23 04:24 amWSW 3.6 5.1----1015.8- 26.6 27.9----
2024-06-23 04:18 amWSW 2.6 4.6----1015.8- 26.6 28.0----
2024-06-23 04:12 amWSW 3.1 5.1----1015.9- 26.6 28.0----
2024-06-23 04:06 am SW 3.1 4.6----1015.9- 26.6 28.0----
2024-06-23 04:00 am SW 2.6 4.6----1015.9 -1.2 26.6 28.0----
2024-06-23 03:54 am SW 2.6 4.6----1016.0- 26.6 28.0----
2024-06-23 03:48 amWSW 2.6 5.1----1016.1- 26.6 28.0----
2024-06-23 03:42 amWSW 3.1 5.7----1016.1- 26.7 28.0----
2024-06-23 03:36 amWSW 3.6 6.2----1016.1- 26.6 28.0----
2024-06-23 03:30 amWSW 3.6 6.7----1016.1- 26.7 28.0----
2024-06-23 03:24 amWSW 3.6 6.2----1016.1- 26.6 28.0----
2024-06-23 03:18 amWSW 3.6 5.7----1016.1- 26.6 28.0----
2024-06-23 03:12 amWSW 4.1 5.7----1016.1- 26.7 28.0----
2024-06-23 03:06 amWSW 4.1 6.7----1016.1- 26.7 28.0----
2024-06-23 03:00 amWSW 3.6 6.2----1016.2 -1.1 26.7 28.0----
2024-06-23 02:54 amWSW 3.6 7.2----1016.2- 26.7 28.0----
2024-06-23 02:48 amWSW 3.6 6.2----1016.2- 26.7 28.0----
2024-06-23 02:42 amWSW 2.6 4.6----1016.2- 26.7 28.0----
2024-06-23 02:36 amWSW 3.6 6.7----1016.3- 26.7 28.0----
2024-06-23 02:30 amWSW 3.1 5.7----1016.3- 26.7 27.9----
2024-06-23 02:24 amWSW 3.1 5.7----1016.3- 26.7 27.9----
2024-06-23 02:18 amWSW 3.6 5.1----1016.4- 26.7 27.9----
2024-06-23 02:12 amWSW 3.6 5.1----1016.4- 26.7 27.9----
2024-06-23 02:06 amWSW 3.1 6.2----1016.5- 26.7 27.9----
2024-06-23 02:00 am--------- 26.7 27.9----
2024-06-23 01:54 am--------- 26.7 27.9----
2024-06-23 01:48 amWSW 3.6 6.7----1016.7- 26.7 27.9----
2024-06-23 01:42 amWSW 3.1 5.1----1016.7- 26.8 27.9----
2024-06-23 01:36 amWSW 2.6 5.1----1016.8- 26.8 27.9----
2024-06-23 01:30 am-------1016.9-- 27.9----
2024-06-23 01:24 am-------1016.9-- 27.9----
2024-06-23 01:18 amWSW 2.6 4.6----1016.9- 26.8 27.9----
2024-06-23 01:12 amWSW 3.1 5.1----1017.0- 26.8 27.9----
2024-06-23 01:06 amWSW 2.1 5.1----1017.0- 26.8 27.8----
2024-06-23 01:00 amWSW 3.6 5.7----1017.1 -0.3 26.8 27.8----
2024-06-23 12:54 am SW 3.1 6.2----1017.1- 26.8 27.8----
2024-06-23 12:48 amWSW 4.1 5.7----1017.2- 26.8 27.8----
2024-06-23 12:42 amWSW 3.1 5.1----1017.3- 26.9 27.8----
2024-06-23 12:36 amWSW 3.1 5.7----1017.2- 26.8 27.8----
2024-06-23 12:30 amWSW 3.1 5.1----1017.3- 26.8 27.7----
2024-06-23 12:24 amWSW 4.1 6.2----1017.3- 26.8 27.8----
2024-06-23 12:18 amWSW 2.6 4.6----1017.3-- 27.8----
2024-06-23 12:12 amWSW 2.6 4.6----1017.3-- 27.8----
2024-06-23 12:06 amWSW 3.1 5.7----1017.3-- 27.8----
2024-06-23 12:00 amWSW 3.1 5.7----1017.3 +0.3 26.9 27.8----
2024-06-22 11:54 pmWSW 3.6 5.7----1017.3- 26.9 27.8----
2024-06-22 11:48 pmWSW 3.1 5.1----1017.3- 26.9 27.8----
2024-06-22 11:42 pmWSW 2.6 4.6----1017.3- 26.9 27.8----
2024-06-22 11:36 pmWSW 3.1 4.6----1017.3- 26.9 27.8----
2024-06-22 11:30 pmWSW 2.6 5.7----1017.3- 26.9 27.8----
2024-06-22 11:24 pm SW 2.6 4.1----1017.3- 26.9 27.9----
2024-06-22 11:18 pm SW 2.1 4.6----1017.3- 26.9 27.9----
2024-06-22 11:12 pmWSW 3.1 5.1----1017.4- 27.0 27.9----
2024-06-22 11:06 pm SW 2.1 4.6----1017.4- 27.0 27.9----
2024-06-22 11:00 pm-------1017.4 +0.6- 27.9----
2024-06-22 10:54 pm-------1017.5-- 27.8----
2024-06-22 10:48 pm-------1017.5-- 27.6----
2024-06-22 10:42 pm-------1017.4-- 27.5----
2024-06-22 10:36 pm-------1017.4-- 27.3----
2024-06-22 10:30 pm SW 3.1 5.1----1017.4- 27.0 27.3----
2024-06-22 10:24 pm SW 3.1 5.7----1017.4- 27.0 27.3----
2024-06-22 10:18 pm SW 3.6 5.7----1017.4- 27.0 27.3----
2024-06-22 10:12 pm SW 3.1 5.7----1017.3- 27.1 27.3----
2024-06-22 10:06 pm SW 3.1 4.6----1017.4- 27.0 27.3----
2024-06-22 10:00 pm SW 3.6 5.7----1017.4 +0.6- 27.3----
2024-06-22 09:54 pm SW 3.1 5.1----1017.3-- 27.3----
2024-06-22 09:48 pm SW 3.6 5.7----1017.3- 27.1 27.3----
2024-06-22 09:42 pm SW 4.1 6.7----1017.3- 27.1 27.3----
2024-06-22 09:36 pm SW 4.6 6.7----1017.2- 27.1 27.3----
2024-06-22 09:30 pm SW 2.6 5.7----1017.2-------
2024-06-22 09:24 pm SW 4.1 5.7----1017.1-------
2024-06-22 09:18 pm SW 2.6 6.2----1017.1- 27.1 27.3----
2024-06-22 09:12 pm SW 3.1 5.1----1017.0- 27.1 27.4----
2024-06-22 09:06 pm SW 2.6 4.1----1017.0- 27.1 27.4----
2024-06-22 09:00 pm SW 3.1 5.1----1017.0 +0.3 27.1 27.5----
2024-06-22 08:54 pmWSW 2.6 5.1----1017.0- 27.1 27.5----
2024-06-22 08:48 pm SW 2.6 5.1----1017.0- 27.2 27.5----
2024-06-22 08:42 pm SW 2.6 5.1----1017.0- 27.2 27.5----
2024-06-22 08:36 pmWSW 2.6 5.7----1016.9- 27.2 27.5----
2024-06-22 08:30 pm SW 4.6 6.2----1016.8- 27.2 27.6----
2024-06-22 08:24 pm SW 3.6 5.1----1016.8- 27.2 27.6----
2024-06-22 08:18 pm SW 2.6 5.1----1016.8- 27.3 27.6----
2024-06-22 08:12 pm SW 3.1 5.7----1016.8- 27.3 27.6----
2024-06-22 08:06 pm SW 3.1 6.2----1016.8- 27.3 27.7----
2024-06-22 08:00 pm SW 3.6 5.7----1016.8 -0.4 27.4 27.7----
2024-06-22 07:54 pm SW 3.6 6.2----1016.8- 27.4 27.8----
2024-06-22 07:48 pm SW 3.6 6.2------- 27.8----
2024-06-22 07:42 pmWSW 2.6 5.1------- 27.9----
2024-06-22 07:36 pm SW 2.6 6.2------- 27.9----
2024-06-22 07:30 pm SW 4.1 5.7----1016.8- 27.7 28.0----
2024-06-22 07:24 pm SW 3.6 6.7----1016.8- 27.8 28.0----
2024-06-22 07:18 pm SW 3.1 5.1----1016.8- 28.0 28.0----
2024-06-22 07:00 pm SW 3.6 6.2----1016.8 -1.2- 28.2----
2024-06-22 06:54 pm SW 3.1 6.2----1016.8-- 28.3----
2024-06-22 06:48 pmWSW 4.1 6.7----1016.8- 28.3 28.4----
2024-06-22 06:42 pm SW 3.1 5.7----1016.8- 28.4 28.5----
2024-06-22 06:36 pm SW 3.1 6.2----1016.8- 28.6 28.6----
2024-06-22 06:30 pmWSW 3.1 6.2----1016.8- 28.7 28.6----
2024-06-22 06:24 pm SW 3.6 6.2----1016.7- 28.4 28.7----
2024-06-22 06:18 pm SW 4.6 6.2----1016.7- 28.3 28.7----
2024-06-22 06:12 pm SW 3.1 6.2----1016.7- 28.6 28.8----
2024-06-22 06:06 pm SW 4.1 6.2----1016.7- 28.5 28.9----
2024-06-22 06:00 pm SW 3.1 6.2----1016.7 -1.8 28.8 28.9----
2024-06-22 05:54 pm SW 4.1 7.2----1016.8- 28.5 29.0----
2024-06-22 05:48 pm SW 4.6 6.7----1016.8- 28.7 29.0----
2024-06-22 05:42 pm SW 3.6 6.7----1016.9- 28.8 28.9----
2024-06-22 05:36 pm SW 4.6 6.7----1016.9- 28.7 28.9----
2024-06-22 05:30 pmWSW 4.1 7.2----1017.0-- 28.9----
2024-06-22 05:24 pm SW 4.6 6.7----1017.0-- 28.9----
2024-06-22 05:18 pm SW 4.6 6.2----1017.0- 28.6 28.8----
2024-06-22 05:12 pmWSW 4.1 6.2----1017.1- 29.2 28.8----
2024-06-22 05:06 pm SW 4.1 6.7----1017.1- 28.9 28.7----
2024-06-22 05:00 pmWSW 3.6 6.2----1017.2 -1.8 29.6 28.6----
2024-06-22 04:54 pm SW 3.6 6.2----1017.3- 29.3 28.6----
2024-06-22 04:48 pmWSW 3.6 7.2----1017.3-- 28.6----
2024-06-22 04:42 pm SW 4.1 6.7----1017.4-- 28.6----
2024-06-22 04:36 pm SW 5.1 8.2----1017.4-- 28.8----
2024-06-22 04:30 pm--------- 29.3 28.9----
2024-06-22 04:24 pm--------- 28.8 29.0----
2024-06-22 04:18 pmSSW 3.1 6.2----1017.8-- 29.0----
2024-06-22 04:12 pm SW 3.6 6.2----1017.9-- 29.0----
2024-06-22 04:06 pm SW 4.1 6.7----1017.8-- 28.9----
2024-06-22 04:00 pmSSW 4.1 6.7----1018.0 -1.7 29.1 28.8----
2024-06-22 03:54 pmSSW 3.6 6.2----1018.0- 29.2 28.7----
2024-06-22 03:48 pm SW 3.6 6.2----1018.1- 29.6 28.6----
2024-06-22 03:42 pmSSW 3.6 6.2----1018.1- 29.2 28.5----
2024-06-22 03:36 pmSSW 4.1 6.7----1018.2- 29.1 28.3----
2024-06-22 03:30 pm SW 3.6 5.7----1018.2- 29.2 28.3----
2024-06-22 03:24 pm SW 3.6 6.7----1018.4- 29.4 28.4----
2024-06-22 03:18 pmSSW 3.6 5.7----1018.4- 29.2 28.4----
2024-06-22 03:12 pm SW 3.1 6.2----1018.5- 29.5 28.5----
2024-06-22 03:06 pm SW 3.6 6.7----1018.6- 29.7 28.5----
2024-06-22 03:00 pm SW 4.1 6.7----1018.5 -1.7 29.0 28.5----
2024-06-22 02:54 pm SW 4.1 5.7----1018.6- 29.6 28.7----
2024-06-22 02:48 pm SW 3.6 5.7----1018.6- 29.4 28.6----
2024-06-22 02:42 pmSSW 3.1 6.2----1018.7- 29.6 28.6----
2024-06-22 02:36 pmSSW 3.1 6.2----1018.7- 29.5 28.6----
2024-06-22 02:30 pm SW 4.1 6.2----1018.9- 29.2 28.6----
2024-06-22 02:24 pm SW 2.6 5.1----1018.9- 29.5 28.6----
2024-06-22 02:18 pm SW 2.6 5.1----1018.9- 29.6-----
2024-06-22 02:12 pm SW 5.1 7.2----1018.9- 29.2-----
2024-06-22 02:06 pm SW 3.6 6.7----1018.9- 29.6-----
2024-06-22 02:00 pm SW 3.1 6.2----1019.0 -1.2 29.6 28.4----
2024-06-22 01:54 pm SW 3.1 6.2----1019.1- 29.6 28.3----
2024-06-22 01:48 pmWSW 3.1 5.7----1019.2- 30.0 28.3----
2024-06-22 01:42 pm SW 3.6 6.2----1019.1- 29.5 28.2----
2024-06-22 01:36 pm SW 3.1 6.2----1019.2- 29.7 28.1----
2024-06-22 01:30 pm SW 2.6 5.1----1019.3- 30.0 28.1----
2024-06-22 01:24 pm SW 3.6 5.1----1019.4- 29.4 28.0----
2024-06-22 01:18 pm SW 3.1 5.1----1019.5- 29.7 28.0----
2024-06-22 01:12 pm SW 3.1 6.2----1019.6- 29.8 27.9----
2024-06-22 01:06 pm SW 3.1 5.7----1019.6- 30.2 27.8----
2024-06-22 01:00 pmWSW 2.6 6.2----1019.7 -0.8 30.2 27.8----
2024-06-22 12:54 pm SW 4.1 6.2----1019.7- 29.4 27.7----
2024-06-22 12:48 pm SW 4.1 5.7----1019.8- 29.6 27.7----
2024-06-22 12:42 pmWSW 2.6 5.7----1019.9- 30.5 27.6----
2024-06-22 12:36 pmWSW 2.6 5.1----1019.9- 30.4 27.6----
2024-06-22 12:30 pm SW 2.6 5.7----1020.0- 30.0 27.6----
2024-06-22 12:24 pm SW 3.6 5.7----1020.0- 29.3 27.6----
2024-06-22 12:18 pm SW 3.6 6.2----1020.0- 29.7 27.6----
2024-06-22 12:12 pmWSW 3.6 5.1----1020.1- 30.1 27.5----
2024-06-22 12:06 pmWSW 3.1 4.6----1020.1- 30.1 27.5----
2024-06-22 12:00 pmWSW 2.6 5.7----1020.2 -0.4 30.4 27.5----
2024-06-22 11:54 amWSW 3.1 5.1----1020.2- 30.3 27.5----
2024-06-22 11:48 amWSW 2.6 4.6----1020.2-- 27.5----
2024-06-22 11:42 am SW 2.6 5.1----1020.3-- 27.4----
2024-06-22 11:36 amWSW 2.6 5.1----1020.3-- 27.4----
2024-06-22 11:30 amWSW 3.1 5.1----1020.3- 29.7 27.4----
2024-06-22 11:24 amWSW 2.6 5.1----1020.3- 29.9 27.3----
2024-06-22 11:18 amWSW 2.6 5.1----1020.3- 29.5 27.3----
2024-06-22 11:12 amWSW 3.1 5.7----1020.3- 29.8 27.2----
2024-06-22 11:06 amWSW 3.6 5.1----1020.3- 29.3 27.2----
2024-06-22 11:00 amWSW 3.1 5.7----1020.2 +0.0 29.6 27.2----
2024-06-22 10:54 amWSW 2.6 5.1----1020.3- 29.7 27.1----
2024-06-22 10:48 amWSW 2.6 5.7----1020.4- 29.6 27.1----
2024-06-22 10:42 am SW 3.1 5.7----1020.4- 29.3 27.1----
2024-06-22 10:36 amWSW 3.1 4.6----1020.5- 29.4 27.1----
2024-06-22 10:30 am SW 2.6 3.6----1020.5- 29.3 27.1----
2024-06-22 10:24 am SW 2.1 3.1----1020.5- 29.5 27.2----
2024-06-22 10:18 am--------- 29.0 27.2----
2024-06-22 10:12 am--------- 29.5 27.1----
2024-06-22 10:06 am--------- 29.4 27.1----
2024-06-22 10:00 amWSW 2.1 3.1----1020.5 +0.4- 27.0----
2024-06-22 09:54 amWSW 1.5 3.1----1020.5-- 27.0----
2024-06-22 09:48 amWSW 2.1 3.1----1020.5- 29.2 26.9----
2024-06-22 09:42 am W 1.5 3.1----1020.6- 28.9 26.8----
2024-06-22 09:36 amWSW 1.5 3.1----1020.6- 29.1 26.8----
2024-06-22 09:30 amSSW 1.5 3.1----1020.6- 29.0 26.8----
2024-06-22 09:24 am W 1.5 3.1----1020.7- 29.1 26.8----
2024-06-22 09:18 amWSW 2.1 2.6----1020.7- 28.9 26.8----
2024-06-22 09:12 amWNW 2.1 3.1----1020.7- 28.2 26.7----
2024-06-22 09:06 amWSW 1.0 1.5----1020.6- 28.0 26.7----
2024-06-22 09:00 am N 1.0 2.1----1020.6 +0.3 28.1-----
2024-06-22 08:54 amNNW 1.0 2.6----1020.5- 27.7-----
2024-06-22 08:48 amNNW 1.0 1.5----1020.5-------
2024-06-22 08:42 amNNW 0.5 1.5----1020.4-------
2024-06-22 08:36 am- 0.0 2.6----1020.4-------
2024-06-22 08:30 am N 1.0 2.1------- 26.7----
2024-06-22 08:24 amNNW 1.0 2.1------- 26.8----
2024-06-22 08:18 am N 0.5 2.1----1020.4- 27.2 26.7----
2024-06-22 08:12 amNNE 1.5 2.1----1020.4- 27.3 26.7----
2024-06-22 08:06 am- 0.0 1.0----1020.4- 27.6 26.8----
2024-06-22 08:00 am-------1020.4 +0.3- 26.8----
2024-06-22 07:54 am-------1020.4-- 26.8----
2024-06-22 07:48 amNNE 1.0 1.5----1020.4- 27.1 26.8----
2024-06-22 07:42 am- 0.0 1.0----1020.4- 27.0 26.8----
2024-06-22 07:36 am- 0.0 1.5----1020.3- 26.8 26.8----
2024-06-22 07:30 am N 1.0 1.5----1020.3- 26.6 26.8----
2024-06-22 07:24 am N 0.5 1.5----1020.3- 26.4 26.8----
2024-06-22 07:18 amNNE 1.0 1.0----1020.2-- 26.8----
2024-06-22 07:12 amNNE 1.0 1.0----1020.2-- 26.8----
2024-06-22 07:06 am- 0.0 0.5----1020.2-- 26.8----
2024-06-22 07:00 am- 0.0 1.0----1020.1- 25.7 26.8----
2024-06-22 06:54 amNNE 1.0 1.0----1020.1- 25.4 26.8----